TimeEST,TemperatureF,Dew PointF,Humidity,Sea Level PressureIn,VisibilityMPH,Wind Direction,Wind SpeedMPH,Gust SpeedMPH,PrecipitationIn,Events,Conditions,WindDirDegrees,DateUTC
12:53 AM,62.1,57.9,86,30.18,10.0,WNW,4.6,-,N/A,,Overcast,290,2013-01-19 05:53:00
1:53 AM,62.1,59.0,90,30.16,10.0,WNW,5.8,-,N/A,,Overcast,300,2013-01-19 06:53:00
2:33 AM,62.6,59.0,88,30.16,10.0,WNW,3.5,-,N/A,,Overcast,300,2013-01-19 07:33:00
2:53 AM,63.0,59.0,87,30.15,10.0,WNW,3.5,-,N/A,,Overcast,300,2013-01-19 07:53:00
3:01 AM,62.6,59.0,88,30.15,10.0,West,3.5,-,N/A,,Overcast,280,2013-01-19 08:01:00
3:51 AM,62.6,60.8,94,30.16,6.0,West,4.6,-,0.00,Rain,Light Rain,260,2013-01-19 08:51:00
3:53 AM,62.1,61.0,96,30.16,5.0,West,4.6,-,0.00,Rain,Light Rain,270,2013-01-19 08:53:00
4:18 AM,62.6,60.8,94,30.15,3.0,NW,3.5,-,0.02,Rain,Light Rain,310,2013-01-19 09:18:00
4:39 AM,62.6,60.8,94,30.16,2.5,NW,5.8,-,0.04,Rain,Light Rain,310,2013-01-19 09:39:00
4:53 AM,62.1,61.0,96,30.16,3.0,NW,9.2,-,0.07,Rain,Light Rain,310,2013-01-19 09:53:00
5:53 AM,63.0,62.1,97,30.16,4.0,North,6.9,-,0.08,Rain,Light Rain,360,2013-01-19 10:53:00
6:16 AM,62.6,62.6,100,30.16,5.0,North,10.4,-,0.02,Rain,Light Rain,360,2013-01-19 11:16:00
6:53 AM,63.0,63.0,100,30.17,10.0,NW,3.5,-,0.02,,Overcast,320,2013-01-19 11:53:00
7:08 AM,62.6,62.6,100,30.18,10.0,North,-9999.0,-,N/A,,Overcast,0,2013-01-19 12:08:00
7:17 AM,62.6,62.6,100,30.18,10.0,North,-9999.0,-,N/A,,Overcast,0,2013-01-19 12:17:00
7:41 AM,62.6,62.6,100,30.18,10.0,NNW,5.8,-,N/A,,Overcast,330,2013-01-19 12:41:00
7:53 AM,63.0,62.1,97,30.18,10.0,NW,3.5,-,N/A,,Overcast,320,2013-01-19 12:53:00
8:14 AM,64.4,62.6,94,30.19,10.0,WNW,5.8,-,N/A,,Overcast,300,2013-01-19 13:14:00
8:53 AM,64.9,63.0,93,30.21,10.0,NNW,4.6,-,N/A,,Scattered Clouds,330,2013-01-19 13:53:00
9:51 AM,69.8,64.4,83,30.22,10.0,NE,6.9,-,N/A,,Mostly Cloudy,40,2013-01-19 14:51:00
9:53 AM,69.1,64.9,87,30.22,10.0,NE,6.9,-,N/A,,Mostly Cloudy,40,2013-01-19 14:53:00
10:39 AM,71.6,64.4,78,30.22,10.0,North,8.1,-,N/A,,Mostly Cloudy,360,2013-01-19 15:39:00
10:48 AM,71.6,64.4,78,30.21,10.0,NNE,6.9,-,N/A,,Mostly Cloudy,20,2013-01-19 15:48:00
10:53 AM,72.0,64.9,78,30.21,10.0,NNE,5.8,-,N/A,,Mostly Cloudy,20,2013-01-19 15:53:00
11:53 AM,73.0,64.0,73,30.19,10.0,NNE,9.2,-,N/A,,Overcast,20,2013-01-19 16:53:00
12:53 PM,73.9,63.0,68,30.15,10.0,ENE,4.6,-,N/A,,Overcast,60,2013-01-19 17:53:00
1:53 PM,73.9,63.0,68,30.12,10.0,Variable,4.6,-,N/A,,Overcast,0,2013-01-19 18:53:00
2:53 PM,75.9,64.0,67,30.11,10.0,NW,5.8,-,N/A,,Overcast,320,2013-01-19 19:53:00
3:53 PM,75.0,64.9,71,30.10,10.0,WNW,6.9,-,N/A,,Overcast,300,2013-01-19 20:53:00
4:53 PM,75.0,66.0,73,30.10,10.0,ESE,5.8,-,N/A,,Overcast,120,2013-01-19 21:53:00
5:53 PM,73.0,66.0,79,30.11,10.0,East,4.6,-,N/A,,Overcast,90,2013-01-19 22:53:00
6:01 PM,71.6,66.2,83,30.11,10.0,East,3.5,-,N/A,,Overcast,80,2013-01-19 23:01:00
6:53 PM,70.0,66.0,87,30.12,10.0,Calm,Calm,-,N/A,,Clear,0,2013-01-19 23:53:00
7:53 PM,69.1,66.0,90,30.14,10.0,Calm,Calm,-,N/A,,Clear,0,2013-01-20 00:53:00
8:53 PM,64.9,64.0,97,30.15,10.0,Calm,Calm,-,N/A,,Clear,0,2013-01-20 01:53:00
9:53 PM,66.0,64.9,96,30.14,10.0,ENE,3.5,-,N/A,,Clear,70,2013-01-20 02:53:00
10:53 PM,62.1,62.1,100,30.13,9.0,West,5.8,-,N/A,,Clear,280,2013-01-20 03:53:00
11:53 PM,63.0,62.1,97,30.12,4.0,NNW,3.5,-,N/A,,Clear,340,2013-01-20 04:53:00